User: anonymous   Login
Location: Unspecified
(0.0000°N, 0.0000°E)
Time: 06:39:38
(UTC+00:00)
Language:

PROGRESS-M 28M - Orbit

View from above orbital plane
View from above orbital plane
View from above satellite
View from above satellite

Ground track
Ground track

The orbit data is extracted from the following two-line orbital elements,

1 40713U 15031A   15352.54319571 +.00014358 +00000-0 +21741-3 0  9995
2 40713 051.6437 244.0274 0008333 295.0996 127.4199 15.54892795976722
Epoch (UTC): 18 December 2015 13:02:12
Eccentricity: 0.0008333
inclination: 51.6437°
perigee height: 397 km
apogee height: 408 km
right ascension of ascending node: 244.0274°
argument of perigee: 295.0996°
revolutions per day: 15.54892795
mean anomaly at epoch: 127.4199°
orbit number at epoch: 97672

The dashed part of the orbit path shows where the satellite is in the earth's shadow,  

DLR